Regional Weather Roundup
Issued by NWS Little Rock, AR

Home | Current Version | Previous Version | Graphics & Text | Print | Product List | Glossary On
Versions: 1 2 3 4 5 6 7 8 9 10 11 12 13 14 15 16 17 18 19 20 21 22 23 24 25 26 27 28 29 30 31 32 33 34 35 36 37 38 39 40 41 42 43 44 45 46 47 48 49 50
000
ASUS44 KLZK 252105
RWRLZK

WEATHER ROUNDUP FOR ARKANSAS
NATIONAL WEATHER SERVICE LITTLE ROCK AR
400 PM CDT MON MAY 25 2015

NOTE: "FAIR" INDICATES FEW OR NO CLOUDS BELOW 12,000 FEET WITH NO
SIGNIFICANT WEATHER AND/OR OBSTRUCTIONS TO VISIBILITY.

ARZ001-003-010-029-252200-
NORTHWEST ARKANSAS

CITY           SKY/WX    TMP DP  RH WIND       PRES   REMARKS
FAYETTEVILLE   PTSUNNY   77  66  68 S12       29.90F
FORT SMITH     MOSUNNY   82  66  58 SE9       29.87F
HARRISON       MOSUNNY   80  64  58 S13G20    29.95F
BENTONVILLE    PTSUNNY   79  64  61 S12       29.90F
ROGERS         PTSUNNY   79  64  60 SE10G18   29.90F
SILOAM SPGS    PTSUNNY   81  63  54 S13       29.91F
HIGHFILL       PTSUNNY   79  65  62 S14G20    29.89F
SPRINGDALE     PTSUNNY   81  64  57 S12G23    29.92F
$$

ARZ004-005-016-252200-
NORTH CENTRAL ARKANSAS

CITY           SKY/WX    TMP DP  RH WIND       PRES   REMARKS
BATESVILLE     PTSUNNY   81  68  65 SE8       30.00F
FLIPPIN        MOSUNNY   82  64  54 S8G17     29.94F
MTN HOME       MOSUNNY   80  66  62 S12G18    29.96F
$$

ARZ040-041-252200-
WEST CENTRAL ARKANSAS

CITY           SKY/WX    TMP DP  RH WIND       PRES   REMARKS
MENA           PTSUNNY   82  70  65 SE7       29.90F HX  86
MOUNT IDA      PTSUNNY   81  68  64 VRB7      29.88F
$$

ARZ009-017-025-026-028-252200-
NORTHEAST ARKANSAS

CITY           SKY/WX    TMP DP  RH WIND       PRES   REMARKS
CORNING          N/A     77  68  73 S13       30.03S
JONESBORO      MOSUNNY   79  70  74 S12       30.01F
NEWPORT        PTSUNNY   82  69  64 S10       30.01F HX  85
WALNUT RIDGE   PTSUNNY   77  66  69 S13       30.02F
BLYTHEVILLE    PTSUNNY   80  70  71 S13       30.04F
$$

ARZ022-023-033-042-044-252200-
CENTRAL ARKANSAS

CITY           SKY/WX    TMP DP  RH WIND       PRES   REMARKS
LITTLE ROCK    PTSUNNY   83  67  58 SE9       29.95F HX  85
N LITTLE ROCK  PTSUNNY   81  71  71 S8        29.95F HX  85
SEARCY         MOSUNNY   83  72  69 S7        29.99F HX  88
HOT SPRINGS    MOSUNNY   82  68  62 SE10      29.92F HX  85
RUSSELLVILLE   MOSUNNY   81  69  67 SE9       29.92F
CLINTON        PTSUNNY   81  70  69 SE5       29.97F
$$

ARZ036-252200-
EAST ARKANSAS

CITY           SKY/WX    TMP DP  RH WIND       PRES   REMARKS
WEST MEMPHIS   MOSUNNY   81  72  74 S9        30.02F HX  85
$$

ARZ050-053-066-070-073-252200-
SOUTHWEST ARKANSAS

CITY           SKY/WX    TMP DP  RH WIND       PRES   REMARKS
ARKADELPHIA    FAIR      87  73  62 SE8       29.90F HX  94
CAMDEN         MOSUNNY   84  68  58 NE6       29.92F HX  87
TEXARKANA      MOSUNNY   84  71  65 SE15      29.88F HX  89
EL DORADO      PTSUNNY   85  70  60 SE9       29.91F HX  89
DE QUEEN       PTSUNNY   84  70  62 SE8       29.85F HX  88
$$

ARZ056-057-069-252200-
SOUTHEAST ARKANSAS

CITY           SKY/WX    TMP DP  RH WIND       PRES   REMARKS
PINE BLUFF     PTSUNNY   84  69  60 SE7       29.96F HX  88
STUTTGART      MOSUNNY   82  70  65 MISG      29.98F HX  86
MONTICELLO     MOSUNNY   84  70  62 SE8       29.97F HX  88

$$




USA.gov is the U.S. government's official web portal to all federal, state and local government web resources and services.